PAWGPAPG

Guest
Details From PAWG - WRANGELL
To PAPG - PETERSBURG JAMES A JOHNSON
Flight Number -
Tags generated
Created
Modified
Stats Distance 28 nm / 52 km
Max Altitude 800 ft / 244 m
Waypoints 3
Social Downloads 0
Likes 0
Share VATSIM

Download

Looking for another format? Having issues loading an existing format? Contact us
Advertisement - Login to hide

Notes

Basic altitude profile: - Ascent Rate: 850ft/min - Ascent Speed: 105kts - Cruise Altitude: 5000ft - Cruise Speed: 205kts - Descent Rate: 900ft/min - Descent Speed: 110kts Options: - Use NATs: yes - Use PACOTS: yes - Use low airways: yes - Use high airways: no

Route

PAWG FPN PAPG

ID Type Via Altitude Latitude Longitude Leg Dist Tot Dist Heading (true) Name
O PAWG APT - 0 ft / 0 m 56.48432˚ -132.36983˚ - 0 nm - WRANGELL
FPN NDB - 800 ft / 244 m 56.79225˚ -132.82097˚ 23 nm 23 nm 321° / 321° FREDERICKS POINT NDB
O PAPG APT - 0 ft / 0 m 56.80165˚ -132.94529˚ 4 nm 27 nm 278° / 278° PETERSBURG JAMES A JOHNSON

Altitude Profile

Advertisement - Login to hide

PAWG

Details ICAO PAWG (WRG)
Name WRANGELL
Region USA (Alaska)
Timezone America/Juneau (UTC-8.0)
Stats Elevation 44 ft / 13 m (AMSL)
Location 56.484324° -132.369832°
Runways 1
Magnetic Variation 18.694° E

METAR

PAWG 261956Z 11014G20KT 10SM -RA BKN045 OVC065 08/05 A2978

Decode

TAF

PAWG 261730Z 2618/2718 12015G25KT P6SM -RA FEW035 BKN045 OVC070 FM262000 13020G30KT 6SM -RA BR BKN025 OVC040 FM270800 13010KT P6SM -SHRA SCT025 OVC040 AMD LTD TO CLD VIS AND WIND 2706/2715

Decode

Departure Runways

ID Width Length Bearing (true) Bearing (mag) Surface Threshold Offset Overrun Length
10 150 ft / 46 m 5,983 ft / 1,824 m 121.43° 102.74° Asphalt 0 ft / 0 m 0 ft / 0 m
28 150 ft / 46 m 5,983 ft / 1,824 m 301.45° 282.76° Asphalt 0 ft / 0 m 0 ft / 0 m

PAPG

Details ICAO PAPG (PSG)
Name PETERSBURG JAMES A JOHNSON
Region USA (Alaska)
Timezone America/Juneau (UTC-8.0)
Stats Elevation 105 ft / 32 m (AMSL)
Location 56.801651° -132.945289°
Runways 1
Magnetic Variation 18.749° E

METAR

PAPG 262003Z 13010G19KT 10SM -RA OVC031 08/04 A2976 RMK AO2 P0000

Decode

TAF

PAPG 261730Z 2618/2718 14010G17KT 6SM -RA SCT015 BKN025 OVC035 WS020/14030KT FM262300 10005KT 6SM -SHRA BKN025 OVC035 WS020/15030KT FM270900 17007KT P6SM -SHRA OVC035 WS020/17025KT AMD LTD TO CLD VIS AND WIND 2706/2715

Decode

Destination Runways

ID Width Length Bearing (true) Bearing (mag) Surface Threshold Offset Overrun Length
04 150 ft / 46 m 5,982 ft / 1,823 m 70.70° 51.95° Asphalt 0 ft / 0 m 0 ft / 0 m
22 150 ft / 46 m 5,982 ft / 1,823 m 250.73° 231.98° Asphalt 0 ft / 0 m 0 ft / 0 m

Approach Navaids

Runway Type Ident Frequency Range Bearing (true) Bearing (mag) Slope Elevation
22 Localiser IPSG 110.50 MHz 18 nm / 33 km 185.00° 166.25° - 151 ft / 46 m (AMSL)
22 DME IPSG 110.50 MHz 18 nm / 33 km - - - 164 ft / 50 m (AMSL)

Popular Alternatives